TimePDT,TemperatureF,Dew PointF,Humidity,Sea Level PressureIn,VisibilityMPH,Wind Direction,Wind SpeedMPH,Gust SpeedMPH,PrecipitationIn,Events,Conditions,WindDirDegrees,DateUTC
12:56 AM,46.9,42.1,83,29.94,10.0,WSW,5.8,-,N/A,,Overcast,240,2013-05-26 07:56:00
1:56 AM,48.0,43.0,83,29.93,10.0,Calm,Calm,-,0.00,Rain,Light Rain,0,2013-05-26 08:56:00
2:56 AM,46.9,45.0,93,29.93,10.0,Calm,Calm,-,0.03,Rain,Light Rain,0,2013-05-26 09:56:00
3:56 AM,46.9,45.0,93,29.92,10.0,SSE,4.6,-,0.01,Rain,Light Rain,150,2013-05-26 10:56:00
4:56 AM,46.9,44.1,90,29.91,10.0,SE,4.6,-,0.02,Rain,Light Rain,140,2013-05-26 11:56:00
5:56 AM,46.9,45.0,93,29.93,10.0,Calm,Calm,-,0.01,Rain,Light Rain,0,2013-05-26 12:56:00
6:56 AM,46.9,46.0,97,29.94,10.0,Calm,Calm,-,0.00,,Overcast,0,2013-05-26 13:56:00
7:03 AM,48.2,46.4,93,29.96,10.0,North,3.5,-,N/A,,Overcast,350,2013-05-26 14:03:00
7:14 AM,48.2,46.4,93,29.97,10.0,North,4.6,-,N/A,,Overcast,360,2013-05-26 14:14:00
7:29 AM,48.2,46.4,93,29.97,10.0,NNE,4.6,-,N/A,,Overcast,20,2013-05-26 14:29:00
7:56 AM,48.9,45.0,86,29.96,10.0,Calm,Calm,-,N/A,,Overcast,0,2013-05-26 14:56:00
8:15 AM,48.2,44.6,87,29.98,10.0,NW,5.8,-,N/A,,Overcast,320,2013-05-26 15:15:00
8:51 AM,48.2,44.6,87,29.99,10.0,NW,8.1,-,0.00,Rain,Light Rain,310,2013-05-26 15:51:00
8:56 AM,48.0,43.0,83,29.98,7.0,WNW,6.9,-,0.01,Rain,Light Rain,290,2013-05-26 15:56:00
9:56 AM,51.1,42.1,71,29.98,10.0,Variable,4.6,-,0.01,,Mostly Cloudy,0,2013-05-26 16:56:00
10:56 AM,54.0,42.1,64,29.98,10.0,West,4.6,-,N/A,,Mostly Cloudy,260,2013-05-26 17:56:00
11:56 AM,55.9,37.9,51,29.97,10.0,Variable,4.6,-,N/A,,Mostly Cloudy,0,2013-05-26 18:56:00
12:56 PM,57.9,36.0,44,29.96,10.0,Variable,4.6,-,N/A,,Mostly Cloudy,0,2013-05-26 19:56:00
1:56 PM,61.0,35.1,38,29.96,10.0,WNW,8.1,17.3,N/A,,Mostly Cloudy,290,2013-05-26 20:56:00
2:56 PM,62.1,34.0,35,29.96,10.0,WNW,12.7,-,N/A,,Mostly Cloudy,290,2013-05-26 21:56:00
3:56 PM,62.1,36.0,38,29.96,10.0,NW,15.0,-,N/A,,Mostly Cloudy,320,2013-05-26 22:56:00
4:56 PM,61.0,34.0,36,29.97,10.0,West,20.7,25.3,N/A,,Clear,280,2013-05-26 23:56:00
5:56 PM,60.1,33.1,36,29.97,10.0,WNW,17.3,24.2,N/A,,Partly Cloudy,300,2013-05-27 00:56:00
6:56 PM,57.9,37.0,46,29.99,10.0,WNW,17.3,-,N/A,,Scattered Clouds,300,2013-05-27 01:56:00
7:56 PM,54.0,37.0,53,30.00,10.0,NW,12.7,-,N/A,,Partly Cloudy,310,2013-05-27 02:56:00
8:56 PM,51.1,37.9,61,30.02,10.0,NNW,6.9,-,N/A,,Mostly Cloudy,330,2013-05-27 03:56:00
9:56 PM,50.0,39.0,66,30.03,10.0,Calm,Calm,-,N/A,,Scattered Clouds,0,2013-05-27 04:56:00
10:56 PM,41.0,35.1,79,30.03,10.0,ESE,3.5,-,N/A,,Clear,120,2013-05-27 05:56:00
11:56 PM,41.0,36.0,82,30.01,10.0,SSE,4.6,-,N/A,,Clear,160,2013-05-27 06:56:00